RH
45 80 79 65 42 33 28 24 19 19 17 14 9 4 4 4 7 8 15 22 62 40 72 52 49 49 60 79 85 78 65 83 88 46 40 70 97 96 90 78 86 74 54 97
88 85 75 50 33 29 26 23 21 18 16 10 6 3 4 4 7 7 13 17 39 45 61 57 56 64 68 75 86 93 90 68 68 45 37 51 72 82 96 89 74 76 70 97
88 85 53 34 28 26 26 23 19 17 14 6 4 4 5 8 8 10 12 27 61 74 68 68 65 61 71 90 86 68 85 59 57 62 68 97 96 92 99 97 92 83 98 98
87 58 35 27 26 26 25 21 17 13 9 5 4 4 5 7 13 27 25 80 80 78 74 64 61 70 77 81 50 86 91 72 55 56 95 95 99 99 99 96 94 88 98 100
82 43 25 24 27 26 22 20 16 12 7 5 5 6 6 8 17 25 96 84 82 84 80 82 84 90 84 81 80 77 73 66 61 63 73 98 99 100 92 85 94 86 76 92
48 32 20 24 27 26 22 19 16 11 6 5 9 6 8 12 18 97 91 35 86 81 69 46 50 46 63 63 71 90 77 75 67 49 38 84 88 100 98 85 89 100 100 100
49 21 18 26 29 25 22 18 16 9 6 6 6 8 10 14 17 25 30 34 44 50 43 43 48 51 47 66 66 73 71 74 62 52 45 59 90 100 100 87 91 100 100 100
40 18 21 29 28 24 20 18 17 8 6 7 8 10 10 27 58 34 38 45 40 39 37 71 43 38 36 48 53 64 72 80 69 59 56 76 100 99 81 74 76 100 100 80
18 18 26 31 26 22 19 19 15 8 6 8 9 9 12 20 41 85 53 54 63 47 91 71 49 45 52 48 54 65 74 73 71 59 62 63 100 66 57 64 97 90 74 76
17 24 31 29 24 20 20 19 11 8 7 10 10 12 16 24 58 88 69 58 51 55 72 55 52 51 59 54 62 75 75 74 60 60 56 86 99 68 64 70 94 70 83 91
22 30 32 26 22 21 22 17 9 8 8 12 10 14 22 40 46 96 80 94 94 98 87 78 72 78 84 82 83 99 98 93 70 75 64 76 88 80 100 100 86 93 95 100
31 34 29 25 22 22 21 12 9 8 8 12 11 21 29 36 50 66 95 94 99 100 100 99 94 92 77 79 86 92 100 96 100 100 92 90 100 100 100 100 100 100 100 100
36 35 26 24 23 22 18 10 9 9 9 17 18 27 36 43 54 73 92 100 97 100 91 87 98 99 99 95 99 100 100 92 99 98 90 100 90 100 99 99 100 99 100 100
52 29 26 24 23 21 13 10 10 9 9 12 26 32 41 54 64 81 87 79 60 57 64 98 92 100 90 100 96 99 96 94 88 84 100 80 98 98 99 87 94 99 93 100
31 26 26 25 22 16 10 10 10 8 10 18 28 36 52 61 72 70 58 67 65 59 67 72 100 100 100 94 96 100 92 99 98 97 98 100 94 92 92 87 92 98 96 83
27 27 27 23 19 11 10 10 10 9 17 22 32 42 57 71 60 54 75 68 59 69 100 97 76 74 81 100 100 92 98 100 100 100 100 100 100 100 100 100 100 100 100 100
28 29 24 20 11 11 10 10 8 12 20 28 39 48 56 59 56 79 77 85 91 96 79 83 86 84 80 97 95 81 98 100 100 100 99 95 99 97 100 100 100 100 100 100
30 25 20 10 10 11 12 9 8 12 19 31 45 54 54 56 66 84 76 85 89 84 84 88 91 92 89 93 85 89 98 96 100 100 100 100 100 100 100 100 100 100 100 100
25 17 9 9 11 12 11 8 8 10 14 31 39 53 69 56 57 82 87 92 100 86 90 89 91 93 92 92 64 90 95 98 95 100 100 100 100 100 100 100 100 100 100 100
14 8 7 10 12 13 10 8 8 10 14 23 22 42 62 62 60 70 89 94 98 100 97 89 95 92 95 69 74 92 98 100 96 93 88 89 94 99 100 99 100 100 100 100
6 7 10 13 14 10 8 8 8 11 18 14 18 33 57 63 64 66 82 86 94 100 99 98 100 100 88 67 87 96 100 100 99 98 99 97 94 87 69 70 91 98 100 99
6 8 13 15 13 11 9 10 13 13 17 18 21 30 55 62 69 73 84 91 95 100 95 100 100 90 64 72 96 97 100 100 98 96 96 84 85 47 43 47 53 64 83 83
8 13 17 15 13 11 12 17 17 18 20 21 20 25 52 66 74 81 86 94 98 92 96 98 90 64 62 77 97 98 99 100 100 93 84 82 67 35 43 54 59 64 65 68
11 14 16 13 14 16 24 28 28 28 29 28 22 24 61 71 79 82 91 92 93 94 100 100 63 58 57 70 89 96 100 100 99 87 74 76 54 34 42 47 53 57 61 72
10 14 15 17 15 17 22 28 33 34 35 32 25 24 65 75 80 86 93 96 98 97 99 75 58 54 52 60 84 99 99 100 92 85 73 73 68 34 39 47 55 56 62 72
9 9 11 13 16 20 24 26 31 34 37 35 28 39 78 78 82 93 98 99 100 96 96 66 57 51 49 50 65 93 96 96 92 86 77 67 77 52 36 43 50 53 57 56
9 13 15 19 21 22 25 30 40 47 46 43 39 55 78 81 91 97 100 100 100 97 93 66 57 52 52 50 50 67 91 97 95 88 85 70 73 79 58 40 44 48 54 58
Wind_Speed
31 35 32 29 24 22 22 21 17 18 22 17 21 17 17 16 17 18 16 14 11 15 15 14 7 13 11 22 21 27 17 20 20 29 19 12 27 19 15 10 9 18 15 6
36 33 29 25 22 22 22 20 16 18 13 16 20 19 16 16 17 17 15 14 16 15 13 10 10 13 17 20 18 14 18 13 21 22 18 22 22 18 18 12 13 13 7 7
32 27 23 22 22 22 23 21 16 21 12 20 17 17 15 17 16 17 16 11 11 11 11 8 10 16 17 14 12 12 15 16 18 17 25 23 13 12 30 1 9 7 15 15
24 20 20 20 21 22 23 21 16 21 19 21 18 15 13 15 14 13 10 5 9 10 8 11 10 14 13 11 14 16 13 16 22 18 7 17 21 25 25 25 22 16 16 13
18 17 20 21 22 23 21 22 24 25 22 22 21 16 16 14 12 11 7 9 11 8 7 8 14 13 11 9 15 15 14 18 18 17 10 7 19 20 22 21 19 17 16 14
14 16 18 21 22 22 21 23 25 27 24 20 18 17 18 12 13 9 9 11 10 7 7 7 4 6 5 9 15 15 14 18 15 12 18 8 5 19 22 22 16 17 18 21
14 16 18 19 20 20 22 24 27 27 22 15 16 17 12 14 12 8 9 9 8 6 5 2 3 7 9 8 10 13 15 15 12 13 18 3 1 9 18 23 16 13 14 25
14 16 18 20 20 20 22 25 28 25 20 12 16 12 14 12 11 9 8 9 8 6 5 3 4 3 5 5 10 13 12 11 13 10 18 1 3 14 27 32 23 11 19 35
13 16 18 19 19 20 23 26 29 25 22 15 12 8 12 8 7 7 9 9 6 6 5 2 5 5 9 5 10 12 9 10 11 14 12 4 6 19 24 21 9 12 33 34
12 16 18 18 19 21 24 28 27 24 20 12 9 10 7 6 8 8 9 7 8 6 4 4 5 4 7 8 11 15 13 13 13 14 13 5 14 25 35 10 16 34 34 34
13 16 17 17 19 21 25 28 26 23 20 10 11 8 5 5 11 7 8 4 10 6 5 3 5 5 6 6 11 8 9 11 13 12 13 4 23 30 24 22 30 34 34 35
13 16 15 16 19 23 27 27 23 22 17 9 13 6 5 6 11 11 9 10 11 7 3 4 4 8 6 9 6 11 4 11 11 7 16 18 20 28 15 26 34 32 33 34
13 15 15 17 20 23 26 24 21 20 16 5 13 8 7 9 11 13 12 12 20 10 8 9 6 3 4 7 7 10 11 19 12 21 12 24 28 16 29 28 29 29 30 32
14 14 15 18 21 24 24 21 19 15 14 9 10 8 10 14 14 16 20 22 12 6 5 4 3 1 6 8 12 12 13 21 24 21 12 27 17 26 28 27 27 29 27 29
12 13 15 18 22 23 20 18 14 11 11 8 8 9 14 15 19 21 15 6 3 2 2 3 2 2 6 11 10 12 20 23 22 24 23 25 27 27 27 28 28 27 28 27
11 14 17 20 21 19 17 13 10 10 9 8 5 12 16 17 20 9 4 3 4 5 4 2 2 5 7 3 6 14 22 20 19 22 23 24 25 25 26 27 27 26 26 27
12 15 18 20 19 16 14 10 7 8 9 7 5 11 14 16 8 2 2 3 2 2 2 2 5 8 8 5 12 23 21 19 18 20 23 22 23 25 24 25 25 25 25 25
13 16 19 18 15 13 11 5 6 7 9 6 7 14 12 15 5 3 4 2 2 3 4 6 8 8 7 5 22 22 21 19 18 21 22 24 23 22 23 23 24 24 24 25
15 17 17 14 11 10 7 2 7 6 8 6 11 18 13 16 7 5 5 6 5 6 6 8 8 5 3 21 23 22 21 21 22 21 22 21 21 22 23 24 24 24 24 26
15 15 13 10 9 7 2 3 7 4 7 8 18 18 20 15 9 4 4 5 5 3 6 7 5 6 10 23 23 21 20 20 21 22 21 22 23 24 24 24 23 23 23 24
13 11 10 9 5 2 0 4 5 4 4 9 17 20 21 15 9 5 4 4 3 1 4 5 4 7 20 22 21 20 19 19 20 21 22 22 24 23 22 21 22 21 21 23
9 9 8 4 2 2 1 4 3 4 4 13 17 21 20 12 8 3 3 3 2 3 6 3 3 12 20 20 19 18 17 17 18 19 19 20 21 19 20 19 19 20 21 23
8 7 4 1 2 2 2 4 6 7 11 13 17 20 18 8 6 3 3 2 2 5 2 3 5 17 18 18 17 17 16 16 17 17 17 19 18 16 15 18 21 22 23 24
6 4 2 1 2 2 8 10 10 10 11 13 16 17 11 8 5 3 3 3 3 2 2 3 14 15 17 17 17 16 15 15 15 16 15 17 17 15 16 19 21 21 22 25
2 1 1 2 5 7 8 8 9 10 12 14 15 14 8 6 2 3 3 3 2 2 4 10 12 14 16 16 16 15 15 15 15 15 15 16 17 14 15 18 19 21 20 21
2 3 4 4 5 6 8 9 10 12 12 12 13 9 5 3 5 3 2 3 2 5 8 10 11 13 15 16 16 15 15 15 15 15 15 16 17 16 14 16 19 20 21 22
2 3 3 4 5 8 9 10 10 10 10 10 9 5 3 6 3 4 3 4 6 7 8 9 10 11 13 15 16 15 15 15 15 15 15 15 17 17 17 15 15 18 20 22
Wind_Direction
320 324 329 333 337 337 336 338 337 338 339 341 345 347 337 329 327 327 323 316 311 309 324 323 326 320 319 326 329 325 328 310 310 318 319 312 10 352 350 339 344 309 289 76
318 323 330 335 339 340 341 343 340 338 340 342 344 344 335 329 323 319 312 307 311 317 330 327 326 330 333 330 333 339 340 334 326 335 342 333 338 338 315 285 287 283 319 90
320 325 332 337 340 342 344 347 341 341 340 350 346 342 335 325 324 318 320 318 337 335 332 329 314 333 337 341 341 354 345 333 340 332 321 324 348 18 36 82 335 341 34 26
319 327 332 336 340 344 346 350 346 351 337 344 345 344 334 325 324 322 332 323 338 337 332 332 330 336 343 348 358 345 345 329 331 326 350 51 48 38 33 29 22 21 358 30
320 325 332 336 341 346 349 350 357 351 348 346 343 345 340 333 330 334 314 337 332 335 328 318 320 326 342 345 344 350 349 335 333 324 16 75 54 35 25 23 2 2 353 345
318 326 329 335 337 341 343 353 352 353 349 346 348 336 332 336 342 329 331 341 340 331 306 331 339 351 346 347 345 347 348 345 341 336 340 223 16 16 13 3 347 353 359 341
315 325 327 331 335 340 345 350 353 355 348 342 342 338 342 336 339 339 331 345 349 338 336 25 4 1 4 1 355 360 342 346 341 332 347 359 153 357 3 354 340 327 337 338
314 320 326 332 337 341 345 349 351 354 354 341 346 349 346 342 345 355 348 343 348 354 4 359 323 324 350 336 347 355 354 343 341 345 327 171 77 343 354 346 332 297 328 327
313 320 328 332 336 341 344 346 350 353 358 348 344 354 352 346 352 346 344 351 358 7 4 350 341 357 337 326 345 353 350 349 351 341 335 327 344 330 328 330 283 270 319 325
315 324 328 333 337 340 342 346 349 352 357 347 356 358 358 11 7 353 345 330 352 20 359 348 351 346 344 335 344 344 350 353 356 342 329 300 326 327 326 313 305 313 322 326
319 324 327 330 334 338 343 345 347 350 354 355 359 359 15 11 16 9 345 5 349 348 17 345 347 315 333 333 321 348 338 345 347 330 319 331 314 319 341 305 305 316 321 325
321 325 327 330 333 337 342 344 345 350 356 354 356 8 9 346 357 10 353 359 354 330 329 326 317 313 316 319 329 336 301 332 313 293 295 307 305 318 312 307 316 320 320 323
322 321 323 329 333 337 341 342 346 351 358 345 359 6 356 328 326 335 335 332 318 320 287 285 277 301 318 321 311 332 322 329 325 317 326 306 330 309 319 318 321 323 325 323
314 316 324 329 333 337 340 342 347 354 355 354 352 355 349 335 326 327 322 320 317 285 252 249 250 279 297 289 301 310 315 335 325 330 312 316 345 325 329 331 330 329 327 326
306 316 323 327 331 335 338 342 349 358 6 349 353 349 341 330 326 326 326 340 352 106 90 85 40 321 321 312 325 313 329 333 330 320 328 326 334 335 332 334 332 331 329 329
305 317 322 326 330 332 338 351 350 357 8 9 359 344 339 329 325 333 4 55 97 100 107 112 19 341 317 280 309 324 331 334 330 328 333 334 334 340 335 333 336 338 336 336
310 316 320 325 326 333 343 350 4 10 14 20 345 341 341 333 333 340 129 111 94 110 101 12 329 327 329 275 316 332 338 341 339 337 340 345 344 341 341 341 342 345 345 346
310 316 321 322 328 335 345 358 17 20 18 28 6 353 343 349 326 280 203 235 265 262 298 318 320 313 319 310 336 337 340 343 348 349 347 345 346 346 345 346 348 352 353 356
313 317 318 324 330 335 344 14 12 16 19 26 0 359 351 345 326 265 240 256 264 271 280 307 316 303 300 334 340 342 341 344 353 352 348 349 350 353 352 353 356 358 1 2
314 317 322 325 328 335 351 1 2 354 350 1 358 352 351 344 329 266 251 249 253 261 286 310 296 289 319 338 339 340 342 347 349 350 352 357 1 358 358 359 1 2 4 4
316 321 316 322 336 358 312 24 353 330 343 347 348 349 344 344 332 297 244 252 264 248 281 316 287 294 332 335 338 342 343 346 351 352 353 355 355 357 0 5 11 14 13 13
320 320 317 334 11 20 20 6 336 327 328 333 338 344 344 340 336 314 288 264 263 244 301 289 298 322 332 338 341 342 344 350 350 353 355 356 357 1 4 12 15 13 13 11
324 320 309 326 64 354 3 336 313 311 315 329 337 342 340 333 335 303 304 279 272 295 288 277 302 332 337 342 345 343 348 351 353 356 353 354 359 6 12 11 10 6 6 9
318 303 306 354 36 329 315 318 311 309 318 327 333 335 332 325 319 307 299 298 304 303 316 293 331 340 345 348 348 347 349 352 354 358 358 1 6 8 12 10 12 10 10 9
311 34 9 4 321 321 327 323 314 310 315 324 328 328 320 324 314 324 298 308 292 271 299 329 340 348 352 353 351 349 351 351 355 359 3 6 11 10 11 10 12 12 13 14
73 43 2 331 333 335 330 323 313 310 315 323 329 322 298 297 311 290 281 302 274 310 322 336 345 353 358 358 355 352 354 354 356 359 4 8 12 11 8 10 11 9 11 15
60 47 21 13 11 359 347 336 330 328 324 325 329 299 280 307 290 288 290 294 296 312 319 333 347 354 359 1 1 359 356 357 358 357 359 4 7 11 11 5 2 5 11 14